Location: Unspecified
(45.3712°N, 0.6436°E)
Time: 16:53:36
(UTC+02:00)

Envisat - Visible Passes

Search period start: 16 July 2018 00:00
Search period end: 26 July 2018 00:00
Orbit: 764 x 766 km, 98.2° (Epoch: 16 July)

Date Brightness Start Highest point End Pass type
(mag) Time Alt. Az. Time Alt. Az. Time Alt. Az.
17 Jul 5.6 22:21:15 10° SW 22:24:48 19° W 22:28:23 10° NW visible
19 Jul 6.0 22:49:37 10° W 22:50:43 11° W 22:51:50 10° WNW visible
20 Jul 5.3 22:09:30 10° SW 22:13:31 23° W 22:17:34 10° NW visible
22 Jul 5.8 22:36:52 10° WSW 22:39:23 14° W 22:41:56 10° WNW visible
25 Jul 5.6 22:24:47 10° SW 22:28:05 17° W 22:31:25 10° NW visible
